NORTHEAST SUFFOLK  -  Winter Weather Advisory Winter Weather Advisory     Winter Weather Advisory Winter Weather Advisory        NORTHERN NASSAU  -  Winter Weather Advisory Winter Weather Advisory        NORTHWEST SUFFOLK  -  Winter Weather Advisory Winter Weather Advisory     Winter Weather Advisory Winter Weather Advisory        SOUTHEAST SUFFOLK  -  Winter Weather Advisory Winter Weather Advisory     Winter Weather Advisory Winter Weather Advisory        SOUTHERN NASSAU  -  Winter Weather Advisory Winter Weather Advisory        SOUTHWEST SUFFOLK  -  Winter Weather Advisory Winter Weather Advisory     Winter Weather Advisory Winter Weather Advisory      

Active alerts

Northern Nassau
  Details for Northern Nassau Winter Weather Advisory
Southern Nassau
  Details for Southern Nassau Winter Weather Advisory
Northwest Suffolk
  Details for Northwest Suffolk Winter Weather Advisory  +1 additional alert
Southwest Suffolk
  Details for Southwest Suffolk Winter Weather Advisory  +1 additional alert
Northeast Suffolk
  Details for Northeast Suffolk Winter Weather Advisory  +1 additional alert
Southeast Suffolk
  Details for Southeast Suffolk Winter Weather Advisory  +1 additional alert


WXM80 ListenWXM80 Stop

You find our weather info also at:

UK Metoffice

WeatherCloud

Weather Underground

Northeastern Weather Network

AWEKAS

Citizen Weather Observer Program (CWOP)

HAMweather, WeatherForYou, PWS Weather


Weather Underground History page Text

Daily Summary for January 16, 2017 Units:  Metric    English   Both
« Previous Day
Next Day »
Daily Weekly Monthly Yearly Custom
  High: Low: Average:
Temperature: 5.2 °C -2.9 °C 0.9 °C
Dew Point: -0.4 °C -5.8 °C -3.4 °C
Humidity: 87 % 55 % 73 %
Wind Speed: 8.9 km/h 0 km/h 2.4 km/h
Wind Gust: 16.7 km/h - -
Wind:- - South
Pressure: 1031 hPa 1024.3 hPa -
Precipitation: 0 mm    
Historical Graphs
 
 
Tabular Data for January 16, 2017
Time Temperature Dew Point Pressure Wind Wind Speed Wind Gust Humidity Rainfall Rate (Hourly)
00:02 -2.6 °C -4.5 °C 1029 hPa Calm   1.9 km/h 87 % 0 mm
00:07 -2.6 °C -4.5 °C 1029 hPa Calm     87 % 0 mm
00:12 -2.6 °C -4.5 °C 1029 hPa North 0.2 km/h   87 % 0 mm
00:17 -2.6 °C -4.4 °C 1029 hPa Calm   1.9 km/h 87 % 0 mm
00:22 -2.6 °C -4.6 °C 1029 hPa Calm   1.9 km/h 86 % 0 mm
00:27 -2.6 °C -4.6 °C 1029 hPa Calm     86 % 0 mm
00:32 -2.6 °C -4.6 °C 1029 hPa Calm   1.6 km/h 86 % 0 mm
00:37 -2.6 °C -4.6 °C 1029.3 hPa Calm     86 % 0 mm
00:42 -2.6 °C -4.8 °C 1029.3 hPa Calm   1.9 km/h 85 % 0 mm
00:47 -2.6 °C -4.8 °C 1029 hPa ENE 1.9 km/h 3.7 km/h 85 % 0 mm
00:52 -2.6 °C -4.8 °C 1029.3 hPa SE 1 km/h 3.7 km/h 85 % 0 mm
00:58 -2.6 °C -4.8 °C 1029.3 hPa Calm     85 % 0 mm
01:03 -2.6 °C -4.9 °C 1029.3 hPa NE 0.2 km/h 1.9 km/h 84 % 0 mm
01:08 -2.6 °C -4.9 °C 1029.3 hPa ENE 2.6 km/h 5.6 km/h 84 % 0 mm
01:13 -2.6 °C -4.9 °C 1029.3 hPa ENE 8.9 km/h 16.7 km/h 84 % 0 mm
01:18 -2 °C -4.8 °C 1029.3 hPa ENE 3.5 km/h 5.6 km/h 81 % 0 mm
01:23 -1.6 °C -4.7 °C 1029.3 hPa ENE 5 km/h 11.1 km/h 79 % 0 mm
01:28 -1.3 °C -4.7 °C 1029.7 hPa NNE 3.4 km/h 11.1 km/h 78 % 0 mm
01:33 -1.1 °C -4.6 °C 1029.7 hPa ENE 5 km/h 7.4 km/h 77 % 0 mm
01:38 -0.9 °C -4.6 °C 1029.7 hPa ENE 8.4 km/h 13 km/h 76 % 0 mm
01:43 -0.6 °C -4.7 °C 1029.7 hPa NE 6.8 km/h 12.9 km/h 74 % 0 mm
01:48 -0.4 °C -4.8 °C 1029.7 hPa ENE 5.5 km/h 11.1 km/h 72 % 0 mm
01:53 -0.3 °C -4.8 °C 1030 hPa ENE 6.1 km/h 11.1 km/h 72 % 0 mm
01:58 -0.2 °C -4.8 °C 1030 hPa ENE 5.5 km/h 7.4 km/h 71 % 0 mm
02:03 -0.2 °C -4.7 °C 1030 hPa East 4.8 km/h 11.3 km/h 72 % 0 mm
02:08 -0.2 °C -4.8 °C 1030 hPa NNE 3.1 km/h 6.4 km/h 71 % 0 mm
02:13 -0.2 °C -4.8 °C 1030 hPa NE 4.3 km/h 9.7 km/h 71 % 0 mm
02:19 -0.2 °C -5.1 °C 1030 hPa ENE 8 km/h 14.8 km/h 70 % 0 mm
02:24 -0.2 °C -5.1 °C 1030 hPa NE 5.8 km/h 13 km/h 70 % 0 mm
02:29 -0.2 °C -5.1 °C 1030.4 hPa ENE 6.1 km/h 13 km/h 70 % 0 mm
02:34 -0.3 °C -5.1 °C 1030.4 hPa ENE 4.8 km/h 12.9 km/h 70 % 0 mm
02:39 -0.3 °C -4.9 °C 1030.4 hPa NE 3.2 km/h 8 km/h 71 % 0 mm
02:44 -0.3 °C -4.9 °C 1030.4 hPa NNE 3.2 km/h 11.3 km/h 71 % 0 mm
02:49 -0.4 °C -5.2 °C 1030.4 hPa NNE 4.8 km/h 12.9 km/h 70 % 0 mm
02:54 -0.5 °C -5.3 °C 1030 hPa NNE 3.2 km/h 11.3 km/h 70 % 0 mm
02:59 -0.6 °C -5.3 °C 1030 hPa NNE 4.8 km/h 13 km/h 70 % 0 mm
03:04 -0.6 °C -5.3 °C 1030 hPa ENE 6 km/h 14.8 km/h 70 % 0 mm
03:09 -0.6 °C -5.3 °C 1030 hPa NE 5.3 km/h 9.3 km/h 70 % 0 mm
03:14 -0.6 °C -5.2 °C 1030 hPa NE 2.3 km/h 5.6 km/h 71 % 0 mm
03:19 -0.7 °C -5.3 °C 1030 hPa NE 5 km/h 7.4 km/h 71 % 0 mm
03:24 -0.8 °C -5.2 °C 1030 hPa ENE 1.8 km/h 5.6 km/h 72 % 0 mm
03:29 -0.8 °C -5.4 °C 1030 hPa ENE 2.6 km/h 5.6 km/h 71 % 0 mm
03:34 -0.8 °C -5.3 °C 1030 hPa ENE 2.4 km/h 5.6 km/h 72 % 0 mm
03:40 -0.9 °C -5.1 °C 1030 hPa NE 1.4 km/h 3.2 km/h 73 % 0 mm
03:45 -0.9 °C -5.3 °C 1030 hPa East 2.4 km/h 7.4 km/h 72 % 0 mm
03:50 -1 °C -5.2 °C 1030 hPa ENE 1.8 km/h 5.6 km/h 73 % 0 mm
03:55 -1.1 °C -5.3 °C 1030 hPa NNE 3.9 km/h 6.4 km/h 73 % 0 mm
04:00 -1.1 °C -5.3 °C 1030 hPa NNE 0.3 km/h 5.6 km/h 73 % 0 mm
04:05 -1.2 °C -5.4 °C 1030 hPa ENE 1.4 km/h 3.7 km/h 73 % 0 mm
04:10 -1.2 °C -5.3 °C 1030 hPa ENE 2.7 km/h 5.6 km/h 74 % 0 mm
04:15 -1.3 °C -5.3 °C 1030 hPa ENE 1.9 km/h 5.6 km/h 74 % 0 mm
04:20 -1.3 °C -5.3 °C 1030 hPa ENE 0.5 km/h 3.7 km/h 74 % 0 mm
04:25 -1.3 °C -5.4 °C 1030 hPa Calm   1.9 km/h 74 % 0 mm
04:30 -1.4 °C -5.2 °C 1030 hPa ENE 2.1 km/h 3.7 km/h 75 % 0 mm
04:35 -1.4 °C -5.3 °C 1030 hPa ENE 1.3 km/h 3.7 km/h 75 % 0 mm
04:38 -1.5 °C -5.3 °C 1029.7 hPa ENE 1.8 km/h   75 % 0 mm
04:43 -1.6 °C -5.4 °C 1029.7 hPa ENE 2.9 km/h 5.6 km/h 75 % 0 mm
04:48 -1.7 °C -5.5 °C 1029.7 hPa ENE 0.8 km/h 3.7 km/h 75 % 0 mm
04:53 -1.8 °C -5.6 °C 1029.7 hPa ENE 2.4 km/h 2.4 km/h 75 % 0 mm
04:58 -1.8 °C -5.7 °C 1029.7 hPa NE 2.9 km/h 6.4 km/h 75 % 0 mm
05:03 -1.9 °C -5.7 °C 1029.7 hPa NE 2.1 km/h 5.6 km/h 75 % 0 mm
05:08 -1.9 °C -5.6 °C 1030 hPa NE 1.8 km/h 5.6 km/h 76 % 0 mm
05:13 -1.9 °C -5.6 °C 1029.7 hPa NE 1.1 km/h 3.7 km/h 76 % 0 mm
05:18 -2 °C -5.7 °C 1029.7 hPa NE 2.7 km/h 5.6 km/h 76 % 0 mm
05:23 -2.1 °C -5.7 °C 1029.7 hPa NNE 1.4 km/h 5.6 km/h 76 % 0 mm
05:28 -2.1 °C -5.7 °C 1029.7 hPa NNE 0.3 km/h 3.7 km/h 76 % 0 mm
05:33 -2.1 °C -5.6 °C 1029.7 hPa NNE 1.1 km/h 3.7 km/h 77 % 0 mm
05:38 -2.1 °C -5.6 °C 1029.7 hPa NNE 0.3 km/h 1.9 km/h 77 % 0 mm
05:43 -2.2 °C -5.7 °C 1029.7 hPa NNE 0.2 km/h 1.9 km/h 77 % 0 mm
05:48 -2.2 °C -5.7 °C 1029.7 hPa NNE 0.3 km/h 3.7 km/h 77 % 0 mm
05:53 -2.2 °C -5.7 °C 1030 hPa Calm     77 % 0 mm
05:58 -2.3 °C -5.8 °C 1030 hPa Calm     77 % 0 mm
06:03 -2.3 °C -5.6 °C 1030 hPa NNE 1 km/h 3.7 km/h 78 % 0 mm
06:08 -2.3 °C -5.7 °C 1030 hPa NNW 2.6 km/h 5.6 km/h 78 % 0 mm
06:14 -2.3 °C -5.7 °C 1030 hPa NNW 0.6 km/h 5.6 km/h 78 % 0 mm
06:19 -2.4 °C -5.6 °C 1030 hPa North 4.3 km/h 11.1 km/h 79 % 0 mm
06:24 -2.3 °C -5.5 °C 1030 hPa NNE 4.3 km/h 6.4 km/h 79 % 0 mm
06:29 -2.3 °C -5.5 °C 1030 hPa NNE 4.8 km/h 5.6 km/h 79 % 0 mm
06:34 -2.3 °C -5.3 °C 1030 hPa North 4.2 km/h 5.6 km/h 80 % 0 mm
06:39 -2.3 °C -5.3 °C 1030 hPa North 1.6 km/h 4.8 km/h 80 % 0 mm
06:44 -2.3 °C -5.4 °C 1030 hPa North 3.2 km/h 8 km/h 79 % 0 mm
06:49 -2.3 °C -5.4 °C 1030 hPa North 1.6 km/h 6.4 km/h 79 % 0 mm
06:54 -2.3 °C -5.4 °C 1030.4 hPa Calm   3.2 km/h 79 % 0 mm
06:59 -2.3 °C -5.6 °C 1030 hPa North 1 km/h 3.2 km/h 78 % 0 mm
07:04 -2.3 °C -5.6 °C 1030.4 hPa Calm   4.8 km/h 78 % 0 mm
07:09 -2.3 °C -5.6 °C 1030.4 hPa Calm   3.2 km/h 78 % 0 mm
07:14 -2.3 °C -5.7 °C 1030.4 hPa Calm   1.6 km/h 78 % 0 mm
07:19 -2.4 °C -5.7 °C 1030.4 hPa Calm   3.2 km/h 78 % 0 mm
07:24 -2.4 °C -5.8 °C 1030.4 hPa North 1.6 km/h 4.8 km/h 78 % 0 mm
07:29 -2.5 °C -5.8 °C 1030 hPa Calm     78 % 0 mm
07:34 -2.6 °C -5.7 °C 1030 hPa Calm     79 % 0 mm
07:39 -2.7 °C -5.8 °C 1030.4 hPa Calm     79 % 0 mm
07:44 -2.7 °C -5.7 °C 1030.4 hPa Calm   1.6 km/h 80 % 0 mm
07:49 -2.8 °C -5.8 °C 1030.4 hPa Calm     80 % 0 mm
07:54 -2.8 °C -5.7 °C 1030.4 hPa Calm     81 % 0 mm
07:59 -2.9 °C -5.7 °C 1030.4 hPa Calm     81 % 0 mm
08:04 -2.9 °C -5.7 °C 1030.4 hPa Calm     81 % 0 mm
08:09 -2.9 °C -5.6 °C 1030.4 hPa Calm     82 % 0 mm
08:14 -2.9 °C -5.6 °C 1030.4 hPa Calm     82 % 0 mm
08:19 -2.8 °C -5.3 °C 1030.4 hPa Calm     83 % 0 mm
08:24 -2.7 °C -5.2 °C 1030.4 hPa Calm     83 % 0 mm
08:29 -2.6 °C -4.9 °C 1030.7 hPa Calm     84 % 0 mm
08:34 -2.5 °C -4.8 °C 1030.7 hPa Calm     84 % 0 mm
08:39 -2.3 °C -4.7 °C 1030.7 hPa Calm   1.9 km/h 84 % 0 mm
08:44 -2.1 °C -4.4 °C 1030.7 hPa North 0.3 km/h 1.9 km/h 84 % 0 mm
08:45 -2.1 °C -4.4 °C 1030.7 hPa NW 2.1 km/h 5.6 km/h 84 % 0 mm
08:50 -1.8 °C -4.3 °C 1030.4 hPa Calm     83 % 0 mm
08:55 -1.5 °C -4.3 °C 1030.7 hPa NW 3.1 km/h 5.6 km/h 81 % 0 mm
09:00 -1.2 °C -4.5 °C 1030.7 hPa NW 2.4 km/h 5.6 km/h 78 % 0 mm
09:05 -0.8 °C -4.6 °C 1030.7 hPa North 3.2 km/h 5.6 km/h 76 % 0 mm
09:10 -0.7 °C -4.4 °C 1030.7 hPa NNW 1.3 km/h 5.6 km/h 76 % 0 mm
09:16 -0.5 °C -4.4 °C 1030.7 hPa North 1.9 km/h 5.6 km/h 75 % 0 mm
09:21 -0.3 °C -4.3 °C 1030.7 hPa WNW 6 km/h 8 km/h 74 % 0 mm
09:26 -0.1 °C -4.3 °C 1030.7 hPa WNW 3.9 km/h 5.6 km/h 73 % 0 mm
09:31 0.2 °C -4.1 °C 1030.7 hPa NW 3.2 km/h 5.6 km/h 73 % 0 mm
09:36 0.4 °C -4.2 °C 1030.7 hPa NW 0.2 km/h 5.6 km/h 71 % 0 mm
09:41 0.7 °C -4.2 °C 1030.7 hPa WNW 1.4 km/h 5.6 km/h 70 % 0 mm
09:46 0.8 °C -3.9 °C 1031 hPa NW 2.1 km/h 5.6 km/h 71 % 0 mm
09:51 1 °C -4.1 °C 1031 hPa NW 1.9 km/h 3.7 km/h 69 % 0 mm
09:56 1.2 °C -3.9 °C 1031 hPa WNW 1 km/h 3.7 km/h 69 % 0 mm
10:01 1.3 °C -4 °C 1030.7 hPa WNW 3.7 km/h 5.6 km/h 68 % 0 mm
10:06 1.4 °C -3.8 °C 1031 hPa WNW 3.5 km/h 5.6 km/h 68 % 0 mm
10:11 1.6 °C -3.9 °C 1031 hPa Calm   3.7 km/h 67 % 0 mm
10:16 1.7 °C -3.8 °C 1030.7 hPa WNW 2.1 km/h 5.6 km/h 67 % 0 mm
10:22 1.8 °C -3.9 °C 1030.7 hPa NW 3.1 km/h 7.4 km/h 66 % 0 mm
10:27 1.9 °C -3.8 °C 1030.7 hPa SSW 6.8 km/h 9.3 km/h 66 % 0 mm
10:32 2 °C -3.7 °C 1030.7 hPa WSW 3.2 km/h 5.6 km/h 66 % 0 mm
10:37 2.1 °C -4 °C 1030.7 hPa WSW 3.9 km/h 5.6 km/h 64 % 0 mm
10:42 2.2 °C -3.9 °C 1030.7 hPa West 1.9 km/h 3.7 km/h 64 % 0 mm
10:47 2.2 °C -3.9 °C 1030.4 hPa WSW 2.7 km/h 8 km/h 64 % 0 mm
10:52 2.2 °C -4.4 °C 1030.4 hPa West 1.3 km/h 7.4 km/h 62 % 0 mm
10:57 2.2 °C -4.1 °C 1030.4 hPa WNW 4.3 km/h 5.6 km/h 63 % 0 mm
11:08 2.3 °C -4.1 °C 1030.4 hPa West 2.6 km/h 9.7 km/h 63 % 0 mm
11:19 2.3 °C -4.1 °C 1030 hPa West 1.6 km/h 9.7 km/h 63 % 0 mm
11:53 2.4 °C -3.9 °C 1029.3 hPa West 4.5 km/h 5.6 km/h 63 % 0 mm
11:55 2.4 °C -3.9 °C 1029.3 hPa West 2.4 km/h 7.4 km/h 63 % 0 mm
12:00 2.5 °C -3.8 °C 1029.3 hPa WSW 2.4 km/h 5.6 km/h 63 % 0 mm
12:10 2.7 °C -3.9 °C 1029 hPa WNW 1.4 km/h 5.6 km/h 62 % 0 mm
12:17 2.8 °C -3.1 °C 1028.7 hPa North 5.3 km/h 8 km/h 65 % 0 mm
12:25 3.1 °C -2.7 °C 1028.7 hPa NW 1 km/h 5.6 km/h 66 % 0 mm
12:32 3.3 °C -2.7 °C 1028.7 hPa WNW 4.8 km/h 8 km/h 65 % 0 mm
12:56 4.1 °C -3.2 °C 1028.3 hPa SW 8.2 km/h 14.8 km/h 59 % 0 mm
13:01 4.2 °C -3.4 °C 1028.3 hPa West 6.4 km/h 11.1 km/h 58 % 0 mm
13:21 4.3 °C -3 °C 1027.7 hPa WSW 3.2 km/h 11.1 km/h 59 % 0 mm
13:26 4.4 °C -3.2 °C 1027.7 hPa West 2.3 km/h 5.6 km/h 58 % 0 mm
13:28 4.4 °C -3.2 °C 1027.7 hPa West 4.5 km/h 6.4 km/h 58 % 0 mm
13:34 4.4 °C -3.1 °C 1027.7 hPa WNW 4.2 km/h 9.3 km/h 58 % 0 mm
13:44 4.6 °C -3.2 °C 1027.3 hPa West 8 km/h 9.7 km/h 57 % 0 mm
13:47 4.7 °C -3.1 °C 1027.3 hPa West 5.8 km/h 8 km/h 57 % 0 mm
13:57 4.9 °C -2.9 °C 1027 hPa West 7.1 km/h 9.7 km/h 57 % 0 mm
14:09 5.1 °C -2.9 °C 1027 hPa West 3.2 km/h 7.4 km/h 56 % 0 mm
14:18 5.2 °C -2.9 °C 1027 hPa WNW 1.3 km/h 3.7 km/h 56 % 0 mm
14:28 5.2 °C -3.1 °C 1027 hPa WNW 1.1 km/h 3.7 km/h 55 % 0 mm
15:05 5.1 °C -1.2 °C 1026.6 hPa Calm   1.9 km/h 64 % 0 mm
15:09 5.1 °C -1.2 °C 1026.6 hPa Calm   1.9 km/h 64 % 0 mm
15:14 5.1 °C -1 °C 1026.6 hPa NNE 2.4 km/h 5.6 km/h 65 % 0 mm
15:21 5 °C -1.4 °C 1026.6 hPa North 0.6 km/h 3.7 km/h 63 % 0 mm
15:29 5 °C -1.4 °C 1026.6 hPa Calm   1.9 km/h 63 % 0 mm
15:42 4.9 °C -1.5 °C 1026.6 hPa Calm     63 % 0 mm
15:51 4.9 °C -1.6 °C 1026.6 hPa Calm     63 % 0 mm
15:56 4.8 °C -1.6 °C 1026.6 hPa Calm     63 % 0 mm
16:06 4.8 °C -1.9 °C 1026.6 hPa Calm     62 % 0 mm
16:29 4.5 °C -1.7 °C 1026.6 hPa North 1.3 km/h 1.9 km/h 64 % 0 mm
16:30 4.4 °C -1.8 °C 1026.6 hPa North 1.3 km/h 3.7 km/h 64 % 0 mm
16:35 4.3 °C -1.9 °C 1026.6 hPa South 5.3 km/h 7.4 km/h 64 % 0 mm
16:38 4.2 °C -1.8 °C 1026.3 hPa SSW 5 km/h 8 km/h 65 % 0 mm
16:39 4.2 °C -1.8 °C 1026.3 hPa SSW 5.1 km/h 9.3 km/h 65 % 0 mm
16:41 4.2 °C -1.8 °C 1026.6 hPa South 4.7 km/h 7.4 km/h 65 % 0 mm
16:46 4 °C -2 °C 1026.6 hPa SSW 2.4 km/h 5.6 km/h 65 % 0 mm
16:51 3.9 °C -2.1 °C 1026.6 hPa South 2.1 km/h 5.6 km/h 65 % 0 mm
16:56 3.8 °C -2 °C 1026.3 hPa SSW 0.2 km/h 5.6 km/h 66 % 0 mm
17:01 3.7 °C -2.1 °C 1026.3 hPa SW 5 km/h 6.4 km/h 66 % 0 mm
17:06 3.6 °C -2.2 °C 1026.3 hPa SW 2.9 km/h 5.6 km/h 66 % 0 mm
17:11 3.6 °C -2.2 °C 1026.6 hPa SW 3.5 km/h 5.6 km/h 66 % 0 mm
17:16 3.4 °C -2.3 °C 1026.6 hPa SW 2.9 km/h 5.6 km/h 66 % 0 mm
17:21 3.3 °C -2.2 °C 1026.6 hPa SW 0.8 km/h 3.7 km/h 67 % 0 mm
17:26 3.3 °C -2.3 °C 1026.3 hPa SW 1.3 km/h 3.7 km/h 67 % 0 mm
17:31 3.2 °C -2.4 °C 1026.3 hPa Calm   1.9 km/h 67 % 0 mm
17:36 3.1 °C -2.5 °C 1026.6 hPa Calm   1.9 km/h 67 % 0 mm
17:41 2.9 °C -2.7 °C 1026.3 hPa SW 1.1 km/h 3.7 km/h 67 % 0 mm
17:46 2.8 °C -2.7 °C 1026.3 hPa SW 1.1 km/h 3.2 km/h 67 % 0 mm
17:51 2.7 °C -2.7 °C 1026.3 hPa SW 1 km/h 3.7 km/h 68 % 0 mm
17:56 2.6 °C -2.6 °C 1026.3 hPa SW 1 km/h 1.9 km/h 69 % 0 mm
18:02 2.4 °C -2.7 °C 1026.6 hPa SW 0.3 km/h 1.9 km/h 69 % 0 mm
18:07 2.3 °C -2.6 °C 1026.6 hPa SW 0.2 km/h 1.9 km/h 70 % 0 mm
18:12 2.2 °C -2.6 °C 1026.6 hPa SW 0.5 km/h 1.9 km/h 71 % 0 mm
18:17 2.1 °C -2.6 °C 1026.3 hPa SW 0.5 km/h 1.9 km/h 71 % 0 mm
18:22 2 °C -2.3 °C 1026.3 hPa South 0.2 km/h 3.7 km/h 73 % 0 mm
18:27 1.9 °C -2.4 °C 1026.3 hPa South 0.2 km/h 3.7 km/h 73 % 0 mm
18:32 1.8 °C -2.3 °C 1026.3 hPa South 1.8 km/h 5.6 km/h 74 % 0 mm
18:37 1.8 °C -2.2 °C 1026.3 hPa SSW 4.3 km/h 7.4 km/h 75 % 0 mm
18:42 1.7 °C -1.9 °C 1026.3 hPa South 5.3 km/h 9.3 km/h 77 % 0 mm
18:47 1.7 °C -1.7 °C 1026.3 hPa SW 2.4 km/h 5.6 km/h 78 % 0 mm
18:52 1.7 °C -1.7 °C 1026.3 hPa SW 1.6 km/h 5.6 km/h 78 % 0 mm
18:57 1.8 °C -1.5 °C 1026.3 hPa SSW 2.9 km/h 5.6 km/h 79 % 0 mm
19:03 1.8 °C -1.5 °C 1026.3 hPa South 2.7 km/h 3.7 km/h 79 % 0 mm
19:08 1.9 °C -1.2 °C 1026.3 hPa SW 4 km/h 11.1 km/h 80 % 0 mm
19:13 2 °C -1.1 °C 1026 hPa SSW 7.6 km/h 11.1 km/h 80 % 0 mm
19:18 2.1 °C -1 °C 1026 hPa SSW 4 km/h 5.6 km/h 80 % 0 mm
19:23 2.2 °C -0.9 °C 1026 hPa WSW 6.9 km/h 8 km/h 80 % 0 mm
19:28 2.3 °C -0.8 °C 1026 hPa SW 6.6 km/h 11.1 km/h 80 % 0 mm
19:33 2.4 °C -0.7 °C 1026 hPa WSW 2.7 km/h 6.4 km/h 80 % 0 mm
19:38 2.6 °C -0.6 °C 1026 hPa SSW 4.8 km/h 5.6 km/h 80 % 0 mm
19:43 2.7 °C -0.6 °C 1026 hPa SW 5.6 km/h 8 km/h 79 % 0 mm
19:48 2.7 °C -0.6 °C 1026 hPa SW 2.9 km/h 7.4 km/h 79 % 0 mm
19:53 2.8 °C -0.5 °C 1026 hPa SSW 5 km/h 7.4 km/h 79 % 0 mm
19:58 2.8 °C -0.5 °C 1026.3 hPa SSW 5 km/h 7.4 km/h 79 % 0 mm
20:03 2.8 °C -0.4 °C 1026 hPa SW 4.2 km/h 7.4 km/h 79 % 0 mm
20:08 2.8 °C -0.6 °C 1026.3 hPa SW 2.7 km/h 3.7 km/h 78 % 0 mm
20:13 2.8 °C -0.6 °C 1026 hPa SW 3.4 km/h 5.6 km/h 78 % 0 mm
20:14 2.8 °C -0.7 °C 1026.3 hPa SW 3.2 km/h 5.6 km/h 78 % 0 mm
20:19 2.8 °C -0.7 °C 1026.3 hPa SW 2.9 km/h 6.4 km/h 78 % 0 mm
20:24 2.8 °C -0.7 °C 1026.3 hPa SW 0.8 km/h 5.6 km/h 78 % 0 mm
20:30 2.8 °C -0.7 °C 1026 hPa SW 3.5 km/h 5.6 km/h 78 % 0 mm
20:35 2.8 °C -0.7 °C 1026 hPa SW 2.1 km/h 5.6 km/h 78 % 0 mm
20:40 2.8 °C -0.7 °C 1026.3 hPa SSW 0.6 km/h 3.7 km/h 78 % 0 mm
20:45 2.8 °C -0.6 °C 1026 hPa SW 0.5 km/h 1.6 km/h 78 % 0 mm
20:50 2.8 °C -0.6 °C 1026 hPa SW 3.7 km/h 3.7 km/h 78 % 0 mm
20:55 2.9 °C -0.6 °C 1026 hPa SW 0.8 km/h 5.6 km/h 78 % 0 mm
21:00 2.9 °C -0.7 °C 1026 hPa SW 1.3 km/h 9.3 km/h 77 % 0 mm
21:05 3 °C -0.7 °C 1026 hPa SSW 4.3 km/h 5.6 km/h 77 % 0 mm
21:10 3.1 °C -0.6 °C 1026 hPa SW 3.7 km/h 6.4 km/h 77 % 0 mm
21:15 3.1 °C -0.7 °C 1026 hPa WSW 4.7 km/h 5.6 km/h 76 % 0 mm
21:20 3.2 °C -0.5 °C 1025.6 hPa SSW 2.4 km/h 5.6 km/h 77 % 0 mm
21:25 3.2 °C -0.7 °C 1025.6 hPa SSW 5.3 km/h 8 km/h 76 % 0 mm
21:30 3.2 °C -0.6 °C 1025.6 hPa SW 3.4 km/h 5.6 km/h 76 % 0 mm
21:35 3.3 °C -0.6 °C 1025.6 hPa SW 5.3 km/h 7.4 km/h 76 % 0 mm
21:40 3.3 °C -0.7 °C 1025.6 hPa SW 2.9 km/h 5.6 km/h 75 % 0 mm
21:45 3.3 °C -0.7 °C 1025.6 hPa SW 1.6 km/h 3.7 km/h 75 % 0 mm
21:50 3.4 °C -0.8 °C 1025.3 hPa SW 3.4 km/h 5.6 km/h 74 % 0 mm
21:55 3.4 °C -0.8 °C 1025.3 hPa SW 0.6 km/h 3.2 km/h 74 % 0 mm
22:00 3.4 °C -0.8 °C 1025.3 hPa WSW 5.5 km/h 6.4 km/h 74 % 0 mm
22:05 3.4 °C -0.9 °C 1025.3 hPa SW 0.5 km/h 5.6 km/h 73 % 0 mm
22:11 3.4 °C -0.9 °C 1025.3 hPa SSW 2.6 km/h 3.7 km/h 73 % 0 mm
22:16 3.4 °C -0.9 °C 1025.3 hPa SSW 4.7 km/h 8 km/h 73 % 0 mm
22:21 3.5 °C -0.9 °C 1025.3 hPa SW 3.7 km/h 5.6 km/h 73 % 0 mm
22:26 3.5 °C -0.9 °C 1025.3 hPa SW 1 km/h 3.7 km/h 73 % 0 mm
22:31 3.5 °C -0.9 °C 1025.3 hPa SW 2.9 km/h 7.4 km/h 73 % 0 mm
22:36 3.5 °C -1.1 °C 1024.9 hPa SW 3.4 km/h 5.6 km/h 72 % 0 mm
22:41 3.5 °C -0.9 °C 1024.9 hPa SW 1.1 km/h 3.7 km/h 73 % 0 mm
22:46 3.6 °C -1 °C 1024.9 hPa SW 1.4 km/h 3.7 km/h 72 % 0 mm
22:51 3.6 °C -1 °C 1024.9 hPa SW 1.9 km/h 4.8 km/h 72 % 0 mm
22:56 3.6 °C -1 °C 1024.9 hPa SW 0.5 km/h 3.7 km/h 72 % 0 mm
23:01 3.6 °C -1 °C 1024.6 hPa SW 1.3 km/h 5.6 km/h 72 % 0 mm
23:06 3.6 °C -1 °C 1024.6 hPa SW 1.3 km/h 3.7 km/h 72 % 0 mm
23:11 3.6 °C -1 °C 1024.6 hPa SW 3.5 km/h 5.6 km/h 72 % 0 mm
23:16 3.6 °C -1 °C 1024.6 hPa SW 4 km/h 6.4 km/h 72 % 0 mm
23:21 3.6 °C -1 °C 1024.6 hPa SW 3.4 km/h 7.4 km/h 72 % 0 mm
23:26 3.6 °C -1 °C 1024.3 hPa SSW 0.2 km/h 1.9 km/h 72 % 0 mm
23:31 3.6 °C -1.2 °C 1024.3 hPa SW 1.3 km/h 3.7 km/h 71 % 0 mm
23:36 3.6 °C -1.2 °C 1024.6 hPa SSW 3.4 km/h 7.4 km/h 71 % 0 mm
23:41 3.6 °C -1.2 °C 1024.3 hPa SW 2.9 km/h 5.6 km/h 71 % 0 mm
23:46 3.6 °C -1.2 °C 1024.3 hPa SW 4 km/h 5.6 km/h 71 % 0 mm
23:52 3.7 °C -1.1 °C 1024.3 hPa SW 2.9 km/h 5.6 km/h 71 % 0 mm
23:57 3.7 °C -1.1 °C 1024.3 hPa WSW 1.3 km/h 7.4 km/h 71 % 0 mm
Crab Meadow Weather
Compliments of Weather Underground - 2.75 mb

Script developed by  Jim McMurry - jmcmurry@mwt.net Adapted for the template by  Wim van der Kuil - Leuven-Template.eu

Recycling: Americans use 85,000,000 tons of paper a year; about 680 pounds per person.